Location: Warner Observatory
(35.1353°N, 89.5455°W)
Time: 22:31:52
(UTC-05:00)

Amateur Radio Satellites - All Passes

Search period start: 24 October 2014 22:01
Search period end: 25 October 2014 22:01
Location: Warner Observatory, 35.1353°N, 89.5455°W

Satellite Date Start Highest point End Downlink Frequencies (MHz)
Time Altitude Azimuth
ZACube-1 24 Oct 22:14:28 22:18:56 52° 75° (ENE) 22:23:22 437.345 MHz
UKube-1 24 Oct 22:20:11 22:24:20 45° 260° (W) 22:28:32 145.840 MHz, 145.915 MHz
RS-15 24 Oct 22:45:58 22:57:02 83° 299° (WNW) 23:08:01 29.354 - 29.394 USB, Beacon 29.352 USB
HO-68 24 Oct 22:51:29 22:55:44 17° 268° (W) 23:00:02 435.675 MHz FM
FUNcube-1 24 Oct 22:59:17 23:03:43 47° 261° (W) 23:08:07 145.950 - 145.970 MHz USB
Oscar 11 24 Oct 23:03:25 23:06:13 17° 266° (W) 23:09:02 145.825 FM, Beacon 2401.500 USB
UOSAT-12 24 Oct 23:04:42 23:08:21 22° 50° (NE) 23:11:57 437.025 FM, 437.400 FM
SO-50 24 Oct 23:20:53 23:24:54 26° 249° (WSW) 23:28:55 436.795 FM
KITSAT 1 24 Oct 23:25:12 23:31:44 28° 255° (WSW) 23:38:16 435.175 FM
MaSat-1 24 Oct 23:49:16 23:53:31 89° 114° (ESE) 23:57:24 437.345 MHz
ZACube-1 24 Oct 23:53:38 23:55:33 12° 268° (W) 23:57:28 437.345 MHz
UOSAT-12 25 Oct 00:44:15 00:48:37 39° 246° (WSW) 00:52:53 437.025 FM, 437.400 FM
JAS-1B 25 Oct 00:58:41 01:01:04 12° 93° (E) 01:03:34 435.800 - 435.900 CW/SSB
RS-15 25 Oct 01:02:59 01:11:14 24° 324° (NW) 01:19:34 29.354 - 29.394 USB, Beacon 29.352 USB
Oscar 10/S400 25 Oct 01:21:34 02:28:13 23° 245° (WSW) 05:13:05 145.825 - 145.975 CW/USB, Beacon 145.810 USB
Oscar 19 25 Oct 01:57:25 02:02:05 35° 98° (E) 02:06:44 437.125 CW, 437.150 USB
AO-27 25 Oct 02:16:05 02:19:59 21° 95° (E) 02:23:52 436.795 MHz FM
AO-Echo 25 Oct 02:36:59 02:42:07 47° 99° (E) 02:47:12 ?
Sapphire 25 Oct 02:42:23 02:45:24 15° 104° (ESE) 02:48:25 437.095 MHz 1200 baud AX-25 AFSK
Oscar 16 25 Oct 02:42:53 02:48:00 77° 285° (WNW) 02:53:06 437.025 USB, Beacon 2401.1428
JAS-1B 25 Oct 02:45:06 02:52:00 83° 104° (ESE) 03:00:18 435.800 - 435.900 CW/SSB
Uribyol 2 25 Oct 03:02:42 03:07:53 67° 102° (ESE) 03:13:01 436.500 FM
PCSat 25 Oct 03:03:11 03:07:41 27° 107° (ESE) 03:12:12 145.825 MHz
ITAMSAT 1 25 Oct 03:08:45 03:13:58 72° 102° (ESE) 03:19:09 435.822 SSB
RS-15 25 Oct 03:26:38 03:29:49 11° 1° (N) 03:33:01 29.354 - 29.394 USB, Beacon 29.352 USB
Gurwin Techsat 1B 25 Oct 03:29:31 03:34:46 59° 101° (E) 03:39:59 435.225 FM
Oscar 19 25 Oct 03:37:13 03:41:11 23° 292° (WNW) 03:45:09 437.125 CW, 437.150 USB
TMSAT-1 25 Oct 03:40:40 03:45:53 55° 100° (E) 03:51:03 436.925 FM
AO-27 25 Oct 03:54:44 03:59:35 40° 289° (WNW) 04:04:24 436.795 MHz FM
AO-Echo 25 Oct 04:16:45 04:20:28 20° 294° (WNW) 04:24:09 ?
AO-7 25 Oct 04:21:50 04:29:02 32° 98° (E) 04:36:13 29.400 - 29.500 MHz
Sapphire 25 Oct 04:22:55 04:28:14 59° 299° (WNW) 04:33:36 437.095 MHz 1200 baud AX-25 AFSK
Uosat F 25 Oct 04:23:19 04:26:40 18° 94° (E) 04:30:01 435.120 FM
JAS-1B 25 Oct 04:38:08 04:42:04 16° 297° (WNW) 04:46:22 435.800 - 435.900 CW/SSB
Uribyol 2 25 Oct 04:44:19 04:46:44 13° 297° (WNW) 04:49:09 436.500 FM
PCSat 25 Oct 04:46:00 04:50:54 35° 303° (WNW) 04:55:51 145.825 MHz
ITAMSAT 1 25 Oct 04:50:40 04:52:47 13° 298° (WNW) 04:54:55 435.822 SSB
OPAL 25 Oct 05:06:31 05:11:36 62° 72° (ENE) 05:16:39 ?
Gurwin Techsat 1B 25 Oct 05:11:09 05:14:11 16° 296° (WNW) 05:17:14 435.225 FM
TMSAT-1 25 Oct 05:22:03 05:25:18 17° 295° (WNW) 05:28:32 436.925 FM
RS-15 25 Oct 05:39:37 05:48:18 25° 37° (NE) 05:57:12 29.354 - 29.394 USB, Beacon 29.352 USB
JAS-2 25 Oct 05:57:38 06:05:11 49° 98° (E) 06:12:36 435.800 - 435.900 CW/SSB, 435.910 FM
Uosat F 25 Oct 06:00:50 06:05:37 44° 288° (WNW) 06:10:22 435.120 FM
AO-7 25 Oct 06:14:02 06:21:57 51° 294° (WNW) 06:29:54 29.400 - 29.500 MHz
PANSAT 25 Oct 06:43:52 06:46:07 15° 162° (SSE) 06:48:23 not established
OPAL 25 Oct 06:48:25 06:50:47 13° 266° (W) 06:53:10 ?
STRAND 1 25 Oct 06:51:27 06:56:31 65° 74° (ENE) 07:01:37 ?
Hamsat 25 Oct 07:00:03 07:04:13 64° 284° (WNW) 07:08:23 145.90 MHz
JAS-2 25 Oct 07:43:05 07:49:48 33° 294° (WNW) 07:56:32 435.800 - 435.900 CW/SSB, 435.910 FM
Saudisat 1A 25 Oct 07:48:59 07:53:19 64° 301° (WNW) 07:57:42 436.775 MHz
RS-15 25 Oct 07:51:09 08:02:27 85° 61° (ENE) 08:14:15 29.354 - 29.394 USB, Beacon 29.352 USB
SO-67 25 Oct 07:59:28 08:02:55 80° 101° (E) 08:06:21 435.3500 MHz FM
PANSAT 25 Oct 08:22:28 08:25:46 28° 174° (S) 08:29:04 not established
HO-68 25 Oct 08:33:54 08:37:58 16° 92° (E) 08:42:01 435.675 MHz FM
STRAND 1 25 Oct 08:34:10 08:36:05 12° 268° (W) 08:38:01 ?
MaSat-1 25 Oct 09:38:38 09:41:08 70° 65° (ENE) 09:43:29 437.345 MHz
PANSAT 25 Oct 10:02:14 10:05:30 27° 187° (S) 10:08:46 not established
RS-15 25 Oct 10:05:46 10:13:30 22° 258° (WSW) 10:21:30 29.354 - 29.394 USB, Beacon 29.352 USB
ZACube-1 25 Oct 10:09:18 10:10:51 12° 92° (E) 10:12:23 437.345 MHz
UKube-1 25 Oct 10:11:30 10:15:34 37° 99° (E) 10:19:35 145.840 MHz, 145.915 MHz
HO-68 25 Oct 10:19:04 10:26:17 79° 287° (WNW) 10:33:27 435.675 MHz FM
FUNcube-1 25 Oct 10:51:50 10:55:49 40° 98° (E) 10:59:43 145.950 - 145.970 MHz USB
Oscar 11 25 Oct 10:52:24 10:56:42 73° 284° (WNW) 11:00:59 145.825 FM, Beacon 2401.500 USB
ISS 25 Oct 11:20:00 11:22:07 16° 128° (SE) 11:24:15 145.800 FM
Oscar 10/S400 25 Oct 11:31:33 11:55:35 29° 153° (SSE) 12:10:58 145.825 - 145.975 CW/USB, Beacon 145.810 USB
PANSAT 25 Oct 11:43:02 11:45:07 14° 199° (SSW) 11:47:12 not established
ZACube-1 25 Oct 11:43:27 11:47:29 44° 286° (WNW) 11:51:26 437.345 MHz
UKube-1 25 Oct 11:48:39 11:51:25 17° 293° (WNW) 11:54:11 145.840 MHz, 145.915 MHz
SO-50 25 Oct 11:53:01 11:56:15 20° 110° (ESE) 11:59:34 436.795 FM
KITSAT 1 25 Oct 11:53:07 12:01:01 61° 112° (ESE) 12:08:56 435.175 FM
PCSat 25 Oct 11:55:16 11:57:49 13° 47° (NE) 12:00:21 145.825 MHz
HO-68 25 Oct 12:09:49 12:12:49 13° 304° (NW) 12:15:49 435.675 MHz FM
Oscar 16 25 Oct 12:21:09 12:23:01 12° 63° (ENE) 12:24:53 437.025 USB, Beacon 2401.1428
FUNcube-1 25 Oct 12:29:35 12:31:48 14° 293° (WNW) 12:33:59 145.950 - 145.970 MHz USB
ISS 25 Oct 12:55:25 12:58:33 39° 322° (NW) 13:01:43 145.800 FM
Oscar 19 25 Oct 13:11:11 13:15:54 38° 71° (ENE) 13:20:37 437.125 CW, 437.150 USB
Sapphire 25 Oct 13:14:04 13:19:24 55° 61° (ENE) 13:24:42 437.095 MHz 1200 baud AX-25 AFSK
UOSAT-12 25 Oct 13:15:06 13:16:48 12° 107° (ESE) 13:18:31 437.025 FM, 437.400 FM
JAS-1B 25 Oct 13:28:51 13:34:38 48° 72° (ENE) 13:40:03 435.800 - 435.900 CW/SSB
AO-27 25 Oct 13:31:14 13:35:21 24° 67° (ENE) 13:39:28 436.795 MHz FM
SO-50 25 Oct 13:32:24 13:36:31 35° 305° (NW) 13:40:46 436.795 FM
PCSat 25 Oct 13:36:29 13:41:56 86° 245° (WSW) 13:47:20 145.825 MHz
AO-Echo 25 Oct 13:46:54 13:51:27 41° 72° (ENE) 13:56:09 ?
KITSAT 1 25 Oct 13:50:02 13:56:51 29° 311° (NW) 14:03:42 435.175 FM
Oscar 16 25 Oct 13:56:32 14:01:42 74° 258° (WSW) 14:06:52 437.025 USB, Beacon 2401.1428
Uribyol 2 25 Oct 14:17:16 14:22:27 73° 75° (ENE) 14:27:41 436.500 FM
ITAMSAT 1 25 Oct 14:23:28 14:28:40 78° 75° (ENE) 14:33:54 435.822 SSB
Gurwin Techsat 1B 25 Oct 14:47:22 14:52:37 68° 75° (ENE) 14:57:54 435.225 FM
Oscar 19 25 Oct 14:51:24 14:55:18 22° 265° (W) 14:59:12 437.125 CW, 437.150 USB
UOSAT-12 25 Oct 14:51:47 14:56:21 61° 302° (WNW) 15:01:01 437.025 FM, 437.400 FM
TMSAT-1 25 Oct 14:58:11 15:03:23 62° 74° (ENE) 15:08:38 436.925 FM
Sapphire 25 Oct 14:58:57 15:02:18 17° 256° (WSW) 15:05:39 437.095 MHz 1200 baud AX-25 AFSK
AO-27 25 Oct 15:09:53 15:14:37 35° 262° (W) 15:19:24 436.795 MHz FM
AO-7 25 Oct 15:17:39 15:24:48 34° 62° (ENE) 15:31:56 29.400 - 29.500 MHz
JAS-1B 25 Oct 15:21:36 15:25:32 18° 265° (W) 15:29:19 435.800 - 435.900 CW/SSB
AO-Echo 25 Oct 15:27:06 15:30:23 18° 267° (W) 15:33:45 ?
Uosat F 25 Oct 15:33:51 15:37:14 19° 66° (ENE) 15:40:39 435.120 FM
Uribyol 2 25 Oct 16:01:06 16:02:23 11° 269° (W) 16:03:39 436.500 FM
JAS-2 25 Oct 16:10:10 16:12:45 13° 57° (ENE) 16:15:27 435.800 - 435.900 CW/SSB, 435.910 FM
Saudisat 1A 25 Oct 16:18:43 16:22:52 38° 56° (NE) 16:27:00 436.775 MHz
Gurwin Techsat 1B 25 Oct 16:30:57 16:33:00 12° 269° (W) 16:35:03 435.225 FM
TMSAT-1 25 Oct 16:41:11 16:43:40 13° 268° (W) 16:46:10 436.925 FM
AO-7 25 Oct 17:09:19 17:17:14 49° 258° (WSW) 17:25:12 29.400 - 29.500 MHz
Uosat F 25 Oct 17:10:52 17:15:38 44° 260° (W) 17:20:27 435.120 FM
OPAL 25 Oct 17:20:41 17:24:18 20° 97° (E) 17:27:53 ?
Hamsat 25 Oct 17:49:55 17:54:03 57° 75° (ENE) 17:58:10 145.90 MHz
JAS-2 25 Oct 17:50:48 17:56:36 89° 257° (WSW) 18:03:16 435.800 - 435.900 CW/SSB, 435.910 FM
Saudisat 1A 25 Oct 17:59:09 18:02:07 18° 250° (WSW) 18:05:04 436.775 MHz
SO-67 25 Oct 18:30:09 18:32:12 15° 70° (ENE) 18:34:14 435.3500 MHz FM
OPAL 25 Oct 18:58:42 19:03:15 38° 291° (WNW) 19:07:47 ?
STRAND 1 25 Oct 19:05:50 19:10:16 28° 97° (E) 19:14:39 ?
ISS 25 Oct 19:26:27 19:29:43 52° 40° (NE) 19:32:59 145.800 FM
KITSAT 1 25 Oct 19:51:02 19:56:25 19° 42° (NE) 20:01:45 435.175 FM
SO-67 25 Oct 20:02:11 20:04:57 23° 264° (W) 20:07:44 435.3500 MHz FM
RS-15 25 Oct 20:05:57 20:10:36 14° 98° (E) 20:15:12 29.354 - 29.394 USB, Beacon 29.352 USB
SO-50 25 Oct 20:28:34 20:29:58 11° 43° (NE) 20:31:21 436.795 FM
HO-68 25 Oct 20:43:42 20:50:39 57° 70° (ENE) 20:57:38 435.675 MHz FM
STRAND 1 25 Oct 20:44:57 20:49:20 29° 291° (WNW) 20:53:42 ?
UKube-1 25 Oct 21:04:23 21:07:45 22° 69° (ENE) 21:11:07 145.840 MHz, 145.915 MHz
ISS 25 Oct 21:04:42 21:06:03 12° 233° (SW) 21:07:23 145.800 FM
Oscar 11 25 Oct 21:44:01 21:48:15 56° 75° (ENE) 21:52:29 145.825 FM, Beacon 2401.500 USB
KITSAT 1 25 Oct 21:44:55 21:53:02 83° 63° (ENE) 22:01:07 435.175 FM
FUNcube-1 25 Oct 21:45:10 21:48:50 24° 70° (ENE) 21:52:29 145.950 - 145.970 MHz USB
